Flag for Germany Weather past 2 weeks in Dinslaken, North Rhine-Westphalia, Germany

Now
53 °F

Overcast.


Feels Like: 53 °F
Forecast: 50 / 60 °F
Wind: 2 mph from South

Location: Essen

Current Time: Sep 24, 2014 at 12:44:50 AM

Latest Report: Sep 24, 2014 at 12:00 AM


Visibility: 10 mi

Pressure: 30.06 "Hg

Humidity: 76%

Dew point: 45 °F

Location of DinslakenLocation

Historic Weather in Dinslaken — Graph

°F

Dinslaken temperature yesterday

Maximum temperature yesterday: 60 °F (at 5:00 PM)
Minimum temperature yesterday: 46 °F (at 7:00 AM)
Average temperature yesterday: 53 °F

Past Weeks' High & Low Weather Summary

 TemperatureHumidityPressure
High77 °F (Sep 17, 4:00 PM)100% (Sep 14, 6:00 AM)30.25 "Hg (Sep 14, 6:00 AM)
Low46 °F (Sep 23, 7:00 AM)49% (Sep 17, 6:00 PM)29.82 "Hg (Sep 19, 5:00 AM)
Average61 °F81%30.05 "Hg
* Reported Midnight between Sep 8 and Sep 9 — Midnight between Sep 23 and Sep 24, Dinslaken, Weather by CustomWeather, © 2014

Note: Actual official high and low records may vary slightly from our data, if they occured in-between our weather recording intervals... More about our weather records

Advertising

Dinslaken weather history for previous 24 hours

 ConditionsComfort  
Time TempWeatherWind HumidityBarometerVisibility
12:00 AM
Sep 24
53 °FOvercast.2 mph76%30.06 "Hg10 mi
11:00 PM
Sep 23
53 °FOvercast.2 mph74%30.06 "Hg11 mi
10:00 PM54 °FOvercast.2 mph74%30.08 "Hg11 mi
9:00 PM53 °FOvercast.1 mph83%30.09 "Hg9 mi
8:00 PM56 °FOvercast.No wind68%30.09 "Hg14 mi
7:00 PM58 °FOvercast.No wind65%30.10 "Hg16 mi
6:00 PM58 °FOvercast.1 mph64%30.10 "Hg16 mi
5:00 PM60 °FOvercast.2 mph52%30.11 "Hg12 mi
4:00 PM59 °FScattered clouds.2 mph54%30.13 "Hg16 mi
3:00 PM59 °FPassing clouds.3 mph55%30.14 "Hg14 mi
2:00 PM58 °FPassing clouds.3 mph58%30.16 "Hg16 mi
1:00 PM57 °FPassing clouds.2 mph67%30.18 "Hg12 mi
12:00 PM55 °FOvercast.2 mph74%30.19 "Hg7 mi
11:00 AM54 °FPassing clouds.2 mph80%30.19 "Hg5 mi
10:00 AM51 °FOvercast.3 mph84%30.19 "Hg6 mi
9:00 AM50 °FOvercast.2 mph90%30.19 "Hg5 mi
8:00 AM46 °FFog.1 mph97%30.18 "Hg3 mi
7:00 AM46 °FFog.1 mph98%30.18 "Hg4 mi
6:00 AM48 °FOvercast.2 mph93%30.17 "Hg5 mi
5:00 AM48 °FPassing clouds.2 mph92%30.16 "Hg6 mi
4:00 AM49 °FOvercast.1 mph89%30.18 "Hg7 mi
3:00 AM48 °FOvercast.2 mph91%30.18 "Hg7 mi
2:00 AM49 °FOvercast.1 mph90%30.19 "Hg8 mi
1:00 AM50 °FPassing clouds.1 mph89%30.19 "Hg9 mi
12:00 AM49 °FPassing clouds.1 mph90%30.19 "Hg10 mi
Weather by CustomWeather, © 2014

See weather overviewHow to use our weather pages